Time,TemperatureF,DewpointF,PressureIn,WindDirection,WindDirectionDegrees,WindSpeedMPH,WindSpeedGustMPH,Humidity,HourlyPrecipIn,Conditions,Clouds,dailyrainin,SoftwareType,DateUTC
2013-09-15 00:00:00,56.5,50.0,30.14,NE,45,3.5,6.0,80,0.00,,,0.00,Rainwise IP-100,2013-09-15 04:00:00,
2013-09-15 00:01:00,56.5,50.0,30.14,NNE,22,7.5,7.5,80,0.00,,,0.00,Rainwise IP-100,2013-09-15 04:01:00,
2013-09-15 00:02:00,56.5,50.0,30.14,NNE,22,1.9,7.0,80,0.00,,,0.00,Rainwise IP-100,2013-09-15 04:02:00,
2013-09-15 00:07:00,56.5,50.0,30.15,NNE,22,0.0,5.0,80,0.00,,,0.00,Rainwise IP-100,2013-09-15 04:07:00,
2013-09-15 00:12:00,56.5,50.0,30.15,NNE,22,2.3,4.0,80,0.00,,,0.00,Rainwise IP-100,2013-09-15 04:12:00,
2013-09-15 00:17:00,56.4,50.0,30.15,NNE,22,1.6,5.0,80,0.00,,,0.00,Rainwise IP-100,2013-09-15 04:17:00,
2013-09-15 00:22:00,56.4,50.0,30.15,NNE,22,2.3,4.0,80,0.00,,,0.00,Rainwise IP-100,2013-09-15 04:22:00,
2013-09-15 00:27:00,56.2,50.0,30.15,NNE,22,2.1,4.0,81,0.00,,,0.00,Rainwise IP-100,2013-09-15 04:27:00,
2013-09-15 00:32:00,56.0,50.0,30.16,NNE,22,3.5,6.0,82,0.00,,,0.00,Rainwise IP-100,2013-09-15 04:32:00,
2013-09-15 00:37:00,55.7,50.0,30.16,North,360,1.9,7.0,82,0.00,,,0.00,Rainwise IP-100,2013-09-15 04:37:00,
2013-09-15 00:42:00,55.6,50.0,30.16,NNE,22,3.3,6.0,83,0.00,,,0.00,Rainwise IP-100,2013-09-15 04:42:00,
2013-09-15 00:47:00,55.8,50.0,30.16,NE,45,3.3,8.0,82,0.00,,,0.00,Rainwise IP-100,2013-09-15 04:47:00,
2013-09-15 00:52:00,55.9,50.0,30.16,NNE,22,2.1,6.0,82,0.00,,,0.00,Rainwise IP-100,2013-09-15 04:52:00,
2013-09-15 00:57:00,55.9,50.0,30.16,NNE,22,2.6,4.0,82,0.00,,,0.00,Rainwise IP-100,2013-09-15 04:57:00,
2013-09-15 01:02:00,55.7,50.0,30.16,NNE,22,2.1,6.0,83,0.00,,,0.00,Rainwise IP-100,2013-09-15 05:02:00,
2013-09-15 01:07:00,55.5,50.0,30.16,ENE,67,2.1,5.0,83,0.00,,,0.00,Rainwise IP-100,2013-09-15 05:07:00,
2013-09-15 01:12:00,55.5,50.0,30.16,NNE,22,2.6,6.0,82,0.00,,,0.00,Rainwise IP-100,2013-09-15 05:12:00,
2013-09-15 01:17:00,55.5,50.0,30.16,NNE,22,2.6,5.0,82,0.00,,,0.00,Rainwise IP-100,2013-09-15 05:17:00,
2013-09-15 01:22:00,55.5,50.0,30.16,NNE,22,2.8,4.0,82,0.00,,,0.00,Rainwise IP-100,2013-09-15 05:22:00,
2013-09-15 01:27:00,55.4,50.0,30.16,NNE,22,2.8,4.0,82,0.00,,,0.00,Rainwise IP-100,2013-09-15 05:27:00,
2013-09-15 01:32:00,55.4,50.0,30.16,North,360,1.2,4.0,82,0.00,,,0.00,Rainwise IP-100,2013-09-15 05:32:00,
2013-09-15 01:37:00,55.2,50.0,30.16,ENE,67,3.5,4.0,83,0.00,,,0.00,Rainwise IP-100,2013-09-15 05:37:00,
2013-09-15 01:42:00,55.0,50.0,30.16,NNE,22,4.0,4.0,83,0.00,,,0.00,Rainwise IP-100,2013-09-15 05:42:00,
2013-09-15 01:47:00,54.8,50.0,30.16,NNE,22,1.4,5.0,84,0.00,,,0.00,Rainwise IP-100,2013-09-15 05:47:00,
2013-09-15 01:52:00,54.6,50.0,30.16,NE,45,4.4,4.4,84,0.00,,,0.00,Rainwise IP-100,2013-09-15 05:52:00,
2013-09-15 01:57:00,54.5,50.0,30.16,NE,45,2.6,5.0,85,0.00,,,0.00,Rainwise IP-100,2013-09-15 05:57:00,
2013-09-15 02:02:00,54.4,50.0,30.16,North,360,5.1,5.1,85,0.00,,,0.00,Rainwise IP-100,2013-09-15 06:02:00,
2013-09-15 02:07:00,54.4,50.0,30.16,NNE,22,0.0,5.0,85,0.00,,,0.00,Rainwise IP-100,2013-09-15 06:07:00,
2013-09-15 02:12:00,54.2,50.0,30.16,NNE,22,3.5,4.0,85,0.00,,,0.00,Rainwise IP-100,2013-09-15 06:12:00,
2013-09-15 02:17:00,54.1,50.0,30.16,NE,45,4.0,6.0,85,0.00,,,0.00,Rainwise IP-100,2013-09-15 06:17:00,
2013-09-15 02:22:00,54.1,50.0,30.16,NNE,22,2.1,4.0,85,0.00,,,0.00,Rainwise IP-100,2013-09-15 06:22:00,
2013-09-15 02:27:00,54.1,50.0,30.17,NNE,22,1.6,4.0,85,0.00,,,0.00,Rainwise IP-100,2013-09-15 06:27:00,
2013-09-15 02:32:00,54.0,50.0,30.16,NNE,22,1.6,4.0,85,0.00,,,0.00,Rainwise IP-100,2013-09-15 06:32:00,
2013-09-15 02:37:00,53.7,49.0,30.16,NNE,22,2.6,5.0,86,0.00,,,0.00,Rainwise IP-100,2013-09-15 06:37:00,
2013-09-15 02:42:00,53.6,49.0,30.17,North,360,3.5,5.0,86,0.00,,,0.00,Rainwise IP-100,2013-09-15 06:42:00,
2013-09-15 02:47:00,53.8,49.0,30.16,NNE,22,0.0,6.0,85,0.00,,,0.00,Rainwise IP-100,2013-09-15 06:47:00,
2013-09-15 02:52:00,54.2,50.0,30.16,NNE,22,1.4,4.0,85,0.00,,,0.00,Rainwise IP-100,2013-09-15 06:52:00,
2013-09-15 02:57:00,54.2,50.0,30.16,NNE,22,2.6,7.0,86,0.00,,,0.00,Rainwise IP-100,2013-09-15 06:57:00,
2013-09-15 03:02:00,53.9,50.0,30.17,NNE,22,4.0,5.0,87,0.00,,,0.00,Rainwise IP-100,2013-09-15 07:02:00,
2013-09-15 03:07:00,53.6,50.0,30.17,NNE,22,2.6,5.0,87,0.00,,,0.00,Rainwise IP-100,2013-09-15 07:07:00,
2013-09-15 03:12:00,53.4,50.0,30.17,North,360,2.1,5.0,88,0.00,,,0.00,Rainwise IP-100,2013-09-15 07:12:00,
2013-09-15 03:17:00,53.2,49.0,30.17,NNE,22,2.8,3.0,88,0.06,,,0.01,Rainwise IP-100,2013-09-15 07:17:00,
2013-09-15 03:22:00,53.0,49.0,30.17,NNE,22,1.9,3.0,88,0.06,,,0.01,Rainwise IP-100,2013-09-15 07:22:00,
2013-09-15 03:27:00,52.8,50.0,30.17,NNE,22,1.2,4.0,89,0.00,,,0.01,Rainwise IP-100,2013-09-15 07:27:00,
2013-09-15 03:32:00,52.6,50.0,30.16,NNE,22,2.3,4.0,90,0.00,,,0.01,Rainwise IP-100,2013-09-15 07:32:00,
2013-09-15 03:37:00,52.4,49.0,30.16,ENE,67,2.6,4.0,90,0.00,,,0.01,Rainwise IP-100,2013-09-15 07:37:00,
2013-09-15 03:42:00,52.3,49.0,30.17,NNE,22,0.0,5.0,90,0.00,,,0.01,Rainwise IP-100,2013-09-15 07:42:00,
2013-09-15 03:47:00,52.1,49.0,30.17,NNE,22,1.4,4.0,91,0.00,,,0.01,Rainwise IP-100,2013-09-15 07:47:00,
2013-09-15 03:52:00,52.0,49.0,30.17,NNE,22,1.2,4.0,91,0.00,,,0.01,Rainwise IP-100,2013-09-15 07:52:00,
2013-09-15 03:57:00,51.9,49.0,30.17,NNE,22,0.0,7.0,91,0.00,,,0.01,Rainwise IP-100,2013-09-15 07:57:00,
2013-09-15 04:02:00,52.0,50.0,30.17,North,360,3.7,5.0,92,0.00,,,0.01,Rainwise IP-100,2013-09-15 08:02:00,
2013-09-15 04:07:00,52.1,50.0,30.17,NNE,22,3.5,4.0,92,0.00,,,0.01,Rainwise IP-100,2013-09-15 08:07:00,
2013-09-15 04:12:00,52.1,50.0,30.17,NNE,22,3.7,4.0,92,0.00,,,0.01,Rainwise IP-100,2013-09-15 08:12:00,
2013-09-15 04:17:00,52.2,50.0,30.17,NE,45,3.7,5.0,92,0.00,,,0.01,Rainwise IP-100,2013-09-15 08:17:00,
2013-09-15 04:22:00,52.3,50.0,30.17,NNE,22,2.3,5.0,92,0.00,,,0.01,Rainwise IP-100,2013-09-15 08:22:00,
2013-09-15 04:27:00,52.4,49.0,30.17,NNE,22,3.0,4.0,91,0.00,,,0.01,Rainwise IP-100,2013-09-15 08:27:00,
2013-09-15 04:32:00,52.4,49.0,30.17,North,360,2.3,5.0,91,0.00,,,0.01,Rainwise IP-100,2013-09-15 08:32:00,
2013-09-15 04:37:00,52.3,49.0,30.18,NE,45,2.1,5.0,91,0.00,,,0.01,Rainwise IP-100,2013-09-15 08:37:00,
2013-09-15 04:42:00,52.3,50.0,30.18,NNE,22,2.3,5.0,92,0.00,,,0.01,Rainwise IP-100,2013-09-15 08:42:00,
2013-09-15 04:47:00,52.3,50.0,30.18,NNE,22,3.0,6.0,92,0.00,,,0.01,Rainwise IP-100,2013-09-15 08:47:00,
2013-09-15 04:52:00,52.2,50.0,30.18,NNE,22,3.5,4.0,92,0.00,,,0.01,Rainwise IP-100,2013-09-15 08:52:00,
2013-09-15 04:57:00,52.1,50.0,30.18,North,360,4.0,4.0,92,0.00,,,0.01,Rainwise IP-100,2013-09-15 08:57:00,
2013-09-15 05:02:00,52.1,50.0,30.18,NNE,22,1.9,5.0,92,0.00,,,0.01,Rainwise IP-100,2013-09-15 09:02:00,
2013-09-15 05:07:00,51.9,50.0,30.19,NNE,22,1.6,3.0,92,0.00,,,0.01,Rainwise IP-100,2013-09-15 09:07:00,
2013-09-15 05:12:00,51.7,50.0,30.19,ENE,67,1.4,3.0,92,0.00,,,0.01,Rainwise IP-100,2013-09-15 09:12:00,
2013-09-15 05:17:00,51.3,49.0,30.18,ENE,67,2.1,2.1,92,0.00,,,0.01,Rainwise IP-100,2013-09-15 09:17:00,
2013-09-15 05:22:00,51.0,49.0,30.18,ENE,67,1.4,2.0,93,0.00,,,0.01,Rainwise IP-100,2013-09-15 09:22:00,
2013-09-15 05:27:00,50.7,48.0,30.19,ENE,67,0.0,3.0,93,0.00,,,0.01,Rainwise IP-100,2013-09-15 09:27:00,
2013-09-15 05:32:00,50.4,49.0,30.19,ENE,67,2.3,2.3,94,0.00,,,0.01,Rainwise IP-100,2013-09-15 09:32:00,
2013-09-15 05:37:00,50.3,48.0,30.19,ENE,67,1.9,4.0,94,0.00,,,0.01,Rainwise IP-100,2013-09-15 09:37:00,
2013-09-15 05:42:00,50.3,48.0,30.19,NE,45,1.6,3.0,95,0.00,,,0.01,Rainwise IP-100,2013-09-15 09:42:00,
2013-09-15 05:47:00,50.4,49.0,30.19,NE,45,1.6,4.0,95,0.00,,,0.01,Rainwise IP-100,2013-09-15 09:47:00,
2013-09-15 05:52:00,50.3,48.0,30.19,NE,45,0.0,2.0,95,0.00,,,0.01,Rainwise IP-100,2013-09-15 09:52:00,
2013-09-15 05:57:00,50.1,48.0,30.20,NE,45,2.8,3.0,95,0.00,,,0.01,Rainwise IP-100,2013-09-15 09:57:00,
2013-09-15 06:02:00,50.1,48.0,30.20,NE,45,1.6,3.0,95,0.00,,,0.01,Rainwise IP-100,2013-09-15 10:02:00,
2013-09-15 06:07:00,50.0,48.0,30.21,ENE,67,1.6,3.0,95,0.00,,,0.01,Rainwise IP-100,2013-09-15 10:07:00,
2013-09-15 06:12:00,50.0,49.0,30.20,ENE,67,0.0,3.0,96,0.00,,,0.01,Rainwise IP-100,2013-09-15 10:12:00,
2013-09-15 06:17:00,50.0,49.0,30.20,ENE,67,2.3,2.3,96,0.00,,,0.01,Rainwise IP-100,2013-09-15 10:17:00,
2013-09-15 06:22:00,49.9,49.0,30.21,ENE,67,0.0,3.0,96,0.00,,,0.01,Rainwise IP-100,2013-09-15 10:22:00,
2013-09-15 06:27:00,49.7,49.0,30.21,ENE,67,0.0,0.0,96,0.00,,,0.01,Rainwise IP-100,2013-09-15 10:27:00,
2013-09-15 06:32:00,49.6,49.0,30.21,ENE,67,0.0,0.0,96,0.00,,,0.01,Rainwise IP-100,2013-09-15 10:32:00,
2013-09-15 06:37:00,49.4,48.0,30.21,ENE,67,0.0,0.0,96,0.00,,,0.01,Rainwise IP-100,2013-09-15 10:37:00,
2013-09-15 06:42:00,49.2,48.0,30.21,ENE,67,0.0,0.0,96,0.00,,,0.01,Rainwise IP-100,2013-09-15 10:42:00,
2013-09-15 06:47:00,49.1,48.0,30.21,ENE,67,0.0,0.0,96,0.00,,,0.01,Rainwise IP-100,2013-09-15 10:47:00,
2013-09-15 06:52:00,49.1,48.0,30.21,ENE,67,0.0,0.0,96,0.00,,,0.01,Rainwise IP-100,2013-09-15 10:52:00,
2013-09-15 06:57:00,49.1,48.0,30.21,ENE,67,0.0,0.0,97,0.00,,,0.01,Rainwise IP-100,2013-09-15 10:57:00,
2013-09-15 07:02:00,49.2,48.0,30.22,ENE,67,0.0,0.0,97,0.00,,,0.01,Rainwise IP-100,2013-09-15 11:02:00,
2013-09-15 07:07:00,49.3,48.0,30.22,ENE,67,0.0,0.0,97,0.00,,,0.01,Rainwise IP-100,2013-09-15 11:07:00,
2013-09-15 07:12:00,49.5,49.0,30.22,ENE,67,0.0,0.0,97,0.00,,,0.01,Rainwise IP-100,2013-09-15 11:12:00,
2013-09-15 07:17:00,49.7,49.0,30.22,ENE,67,0.0,1.0,97,0.00,,,0.01,Rainwise IP-100,2013-09-15 11:17:00,
2013-09-15 07:22:00,50.4,50.0,30.22,ENE,67,0.0,1.0,97,0.00,,,0.01,Rainwise IP-100,2013-09-15 11:22:00,
2013-09-15 07:27:00,51.3,50.0,30.22,ENE,67,0.0,1.0,98,0.00,,,0.01,Rainwise IP-100,2013-09-15 11:27:00,
2013-09-15 07:32:00,52.3,51.0,30.22,ENE,67,1.4,1.4,98,0.00,,,0.01,Rainwise IP-100,2013-09-15 11:32:00,
2013-09-15 07:37:00,53.2,52.0,30.22,ENE,67,0.0,1.0,98,0.00,,,0.01,Rainwise IP-100,2013-09-15 11:37:00,
2013-09-15 07:42:00,54.1,53.0,30.23,North,360,1.2,2.0,98,0.00,,,0.01,Rainwise IP-100,2013-09-15 11:42:00,
2013-09-15 07:47:00,54.8,54.0,30.23,NNE,22,1.4,3.0,98,0.00,,,0.01,Rainwise IP-100,2013-09-15 11:47:00,
2013-09-15 07:52:00,55.4,54.0,30.22,NNE,22,0.0,2.0,98,0.00,,,0.01,Rainwise IP-100,2013-09-15 11:52:00,
2013-09-15 07:57:00,56.0,55.0,30.22,NNW,337,2.1,3.0,98,0.00,,,0.01,Rainwise IP-100,2013-09-15 11:57:00,
2013-09-15 08:02:00,56.5,56.0,30.23,North,360,0.0,3.0,98,0.00,,,0.01,Rainwise IP-100,2013-09-15 12:02:00,
2013-09-15 08:07:00,57.0,56.0,30.23,NNE,22,1.4,4.0,97,0.00,,,0.01,Rainwise IP-100,2013-09-15 12:07:00,
2013-09-15 08:12:00,57.6,56.0,30.23,NNW,337,3.3,3.3,95,0.00,,,0.01,Rainwise IP-100,2013-09-15 12:12:00,
2013-09-15 08:17:00,58.2,55.0,30.24,NNE,22,3.3,5.0,90,0.00,,,0.01,Rainwise IP-100,2013-09-15 12:17:00,
2013-09-15 08:22:00,58.5,54.0,30.24,NNW,337,0.0,4.0,85,0.00,,,0.01,Rainwise IP-100,2013-09-15 12:22:00,
2013-09-15 08:27:00,58.8,53.0,30.23,NNW,337,2.3,4.0,81,0.00,,,0.01,Rainwise IP-100,2013-09-15 12:27:00,
2013-09-15 08:32:00,59.0,53.0,30.23,NNW,337,1.6,4.0,79,0.00,,,0.01,Rainwise IP-100,2013-09-15 12:32:00,
2013-09-15 08:37:00,59.2,52.0,30.23,NNW,337,2.8,4.0,77,0.00,,,0.01,Rainwise IP-100,2013-09-15 12:37:00,
2013-09-15 08:42:00,59.3,51.0,30.24,NNW,337,2.8,4.0,75,0.00,,,0.01,Rainwise IP-100,2013-09-15 12:42:00,
2013-09-15 08:47:00,59.4,51.0,30.24,NNW,337,3.3,5.0,75,0.00,,,0.01,Rainwise IP-100,2013-09-15 12:47:00,
2013-09-15 08:52:00,59.7,51.0,30.24,NNE,22,0.0,4.0,75,0.00,,,0.01,Rainwise IP-100,2013-09-15 12:52:00,
2013-09-15 08:57:00,60.1,52.0,30.24,NNW,337,1.9,4.0,75,0.00,,,0.01,Rainwise IP-100,2013-09-15 12:57:00,
2013-09-15 09:02:00,60.5,52.0,30.24,NNW,337,2.3,4.0,73,0.00,,,0.01,Rainwise IP-100,2013-09-15 13:02:00,
2013-09-15 09:07:00,60.7,51.0,30.24,NNW,337,7.0,7.0,72,0.00,,,0.01,Rainwise IP-100,2013-09-15 13:07:00,
2013-09-15 09:12:00,60.9,51.0,30.24,NW,315,4.9,7.0,71,0.00,,,0.01,Rainwise IP-100,2013-09-15 13:12:00,
2013-09-15 09:17:00,61.1,51.0,30.25,NW,315,5.1,6.0,70,0.00,,,0.01,Rainwise IP-100,2013-09-15 13:17:00,
2013-09-15 09:22:00,61.2,50.0,30.24,NW,315,3.5,5.0,69,0.00,,,0.01,Rainwise IP-100,2013-09-15 13:22:00,
2013-09-15 09:27:00,61.3,50.0,30.24,WNW,292,4.0,5.0,69,0.00,,,0.01,Rainwise IP-100,2013-09-15 13:27:00,
2013-09-15 09:32:00,61.7,51.0,30.24,WNW,292,2.8,6.0,69,0.00,,,0.01,Rainwise IP-100,2013-09-15 13:32:00,
2013-09-15 09:37:00,62.0,51.0,30.25,NW,315,1.4,4.0,68,0.00,,,0.01,Rainwise IP-100,2013-09-15 13:37:00,
2013-09-15 09:42:00,62.2,51.0,30.24,WSW,247,3.0,4.0,68,0.00,,,0.01,Rainwise IP-100,2013-09-15 13:42:00,
2013-09-15 09:47:00,62.5,51.0,30.25,NNW,337,0.0,4.0,67,0.00,,,0.01,Rainwise IP-100,2013-09-15 13:47:00,
2013-09-15 09:52:00,62.9,52.0,30.24,WSW,247,3.5,6.0,67,0.00,,,0.01,Rainwise IP-100,2013-09-15 13:52:00,
2013-09-15 09:57:00,63.4,53.0,30.25,WNW,292,5.6,6.0,67,0.00,,,0.01,Rainwise IP-100,2013-09-15 13:57:00,
2013-09-15 10:02:00,63.7,53.0,30.25,NW,315,4.0,6.0,67,0.00,,,0.01,Rainwise IP-100,2013-09-15 14:02:00,
2013-09-15 10:07:00,63.8,51.0,30.25,NW,315,1.2,7.0,64,0.00,,,0.01,Rainwise IP-100,2013-09-15 14:07:00,
2013-09-15 10:12:00,63.7,50.0,30.25,WNW,292,4.0,7.0,63,0.00,,,0.01,Rainwise IP-100,2013-09-15 14:12:00,
2013-09-15 10:17:00,63.8,51.0,30.25,WNW,292,5.4,7.0,64,0.00,,,0.01,Rainwise IP-100,2013-09-15 14:17:00,
2013-09-15 10:22:00,64.2,51.0,30.25,West,270,4.7,5.0,64,0.00,,,0.01,Rainwise IP-100,2013-09-15 14:22:00,
2013-09-15 10:27:00,64.6,52.0,30.24,NW,315,0.0,4.0,64,0.00,,,0.01,Rainwise IP-100,2013-09-15 14:27:00,
2013-09-15 10:32:00,65.1,52.0,30.25,West,270,4.9,5.0,63,0.00,,,0.01,Rainwise IP-100,2013-09-15 14:32:00,
2013-09-15 10:37:00,65.4,53.0,30.24,NNW,337,4.7,5.0,63,0.00,,,0.01,Rainwise IP-100,2013-09-15 14:37:00,
2013-09-15 10:42:00,65.6,52.0,30.25,WNW,292,7.7,8.0,62,0.00,,,0.01,Rainwise IP-100,2013-09-15 14:42:00,
2013-09-15 10:47:00,65.4,52.0,30.24,NNW,337,6.5,9.0,62,0.00,,,0.01,Rainwise IP-100,2013-09-15 14:47:00,
2013-09-15 10:52:00,65.3,51.0,30.24,NNE,22,2.1,8.0,62,0.00,,,0.01,Rainwise IP-100,2013-09-15 14:52:00,
2013-09-15 10:57:00,65.3,51.0,30.24,NNW,337,1.9,7.0,62,0.00,,,0.01,Rainwise IP-100,2013-09-15 14:57:00,
2013-09-15 11:02:00,65.4,51.0,30.24,NW,315,5.4,8.0,61,0.00,,,0.01,Rainwise IP-100,2013-09-15 15:02:00,
2013-09-15 11:07:00,65.4,50.0,30.24,WNW,292,10.0,13.0,59,0.00,,,0.01,Rainwise IP-100,2013-09-15 15:07:00,
2013-09-15 11:12:00,65.6,50.0,30.24,WNW,292,11.7,12.0,58,0.00,,,0.01,Rainwise IP-100,2013-09-15 15:12:00,
2013-09-15 11:17:00,65.9,50.0,30.24,NW,315,11.0,13.0,58,0.00,,,0.01,Rainwise IP-100,2013-09-15 15:17:00,
2013-09-15 11:22:00,66.1,51.0,30.24,WNW,292,12.6,15.0,59,0.00,,,0.01,Rainwise IP-100,2013-09-15 15:22:00,
2013-09-15 11:27:00,66.1,50.0,30.24,WNW,292,11.2,14.0,58,0.00,,,0.01,Rainwise IP-100,2013-09-15 15:27:00,
2013-09-15 11:32:00,66.1,50.0,30.24,NW,315,12.6,14.0,58,0.00,,,0.01,Rainwise IP-100,2013-09-15 15:32:00,
2013-09-15 11:37:00,65.9,50.0,30.24,NNW,337,7.2,12.0,57,0.00,,,0.01,Rainwise IP-100,2013-09-15 15:37:00,
2013-09-15 11:42:00,65.7,49.0,30.24,WNW,292,10.5,11.0,55,0.00,,,0.01,Rainwise IP-100,2013-09-15 15:42:00,
2013-09-15 11:47:00,65.9,50.0,30.24,NW,315,6.8,13.0,56,0.00,,,0.01,Rainwise IP-100,2013-09-15 15:47:00,
2013-09-15 11:52:00,66.0,50.0,30.24,WNW,292,9.8,13.0,57,0.00,,,0.01,Rainwise IP-100,2013-09-15 15:52:00,
2013-09-15 11:57:00,66.0,50.0,30.24,WNW,292,8.6,13.0,57,0.00,,,0.01,Rainwise IP-100,2013-09-15 15:57:00,
2013-09-15 12:02:00,66.1,50.0,30.24,NW,315,6.3,12.0,58,0.00,,,0.01,Rainwise IP-100,2013-09-15 16:02:00,
2013-09-15 12:07:00,66.2,51.0,30.24,WNW,292,10.0,11.0,58,0.00,,,0.01,Rainwise IP-100,2013-09-15 16:07:00,
2013-09-15 12:12:00,66.2,50.0,30.24,WNW,292,10.5,13.0,57,0.00,,,0.01,Rainwise IP-100,2013-09-15 16:12:00,
2013-09-15 12:17:00,66.3,51.0,30.24,WNW,292,9.1,13.0,58,0.00,,,0.01,Rainwise IP-100,2013-09-15 16:17:00,
2013-09-15 12:22:00,66.4,51.0,30.24,WNW,292,10.0,13.0,58,0.00,,,0.01,Rainwise IP-100,2013-09-15 16:22:00,
2013-09-15 12:27:00,66.3,51.0,30.24,WNW,292,10.3,12.0,58,0.00,,,0.01,Rainwise IP-100,2013-09-15 16:27:00,
2013-09-15 12:32:00,66.5,51.0,30.24,WNW,292,11.9,14.0,58,0.00,,,0.01,Rainwise IP-100,2013-09-15 16:32:00,
2013-09-15 12:37:00,66.8,51.0,30.24,WNW,292,10.7,14.0,58,0.00,,,0.01,Rainwise IP-100,2013-09-15 16:37:00,
2013-09-15 12:43:00,66.8,51.0,30.24,WNW,292,10.3,14.0,57,0.00,,,0.01,Rainwise IP-100,2013-09-15 16:43:00,
2013-09-15 12:48:00,66.7,51.0,30.23,WNW,292,10.5,12.0,57,0.00,,,0.01,Rainwise IP-100,2013-09-15 16:48:00,
2013-09-15 12:53:00,66.5,51.0,30.23,NW,315,11.2,13.0,58,0.00,,,0.01,Rainwise IP-100,2013-09-15 16:53:00,
2013-09-15 12:58:00,66.6,51.0,30.22,NW,315,8.9,13.0,58,0.00,,,0.01,Rainwise IP-100,2013-09-15 16:58:00,
2013-09-15 13:03:00,66.8,51.0,30.23,NW,315,7.7,13.0,58,0.00,,,0.01,Rainwise IP-100,2013-09-15 17:03:00,
2013-09-15 13:08:00,66.8,51.0,30.23,WNW,292,8.4,13.0,57,0.00,,,0.01,Rainwise IP-100,2013-09-15 17:08:00,
2013-09-15 13:13:00,66.7,51.0,30.23,WNW,292,7.5,14.0,57,0.00,,,0.01,Rainwise IP-100,2013-09-15 17:13:00,
2013-09-15 13:18:00,66.6,51.0,30.22,WNW,292,9.3,11.0,58,0.00,,,0.01,Rainwise IP-100,2013-09-15 17:18:00,
2013-09-15 13:23:00,66.6,52.0,30.22,NW,315,10.5,14.0,59,0.00,,,0.01,Rainwise IP-100,2013-09-15 17:23:00,
2013-09-15 13:28:00,66.7,51.0,30.22,WNW,292,9.1,14.0,58,0.00,,,0.01,Rainwise IP-100,2013-09-15 17:28:00,
2013-09-15 13:33:00,66.9,53.0,30.22,WNW,292,9.3,15.0,59,0.00,,,0.01,Rainwise IP-100,2013-09-15 17:33:00,
2013-09-15 13:38:00,67.0,53.0,30.21,WNW,292,9.8,14.0,59,0.00,,,0.01,Rainwise IP-100,2013-09-15 17:38:00,
2013-09-15 13:43:00,67.1,53.0,30.22,WNW,292,10.0,12.0,59,0.00,,,0.01,Rainwise IP-100,2013-09-15 17:43:00,
2013-09-15 13:48:00,67.2,52.0,30.22,WNW,292,10.5,12.0,58,0.00,,,0.01,Rainwise IP-100,2013-09-15 17:48:00,
2013-09-15 13:53:00,67.4,51.0,30.21,WNW,292,8.4,12.0,56,0.00,,,0.01,Rainwise IP-100,2013-09-15 17:53:00,
2013-09-15 13:58:00,67.5,51.0,30.21,WNW,292,8.4,11.0,56,0.00,,,0.01,Rainwise IP-100,2013-09-15 17:58:00,
2013-09-15 14:03:00,67.5,52.0,30.21,WNW,292,6.8,11.0,57,0.00,,,0.01,Rainwise IP-100,2013-09-15 18:03:00,
2013-09-15 14:08:00,67.5,52.0,30.21,NNW,337,6.5,11.0,57,0.00,,,0.01,Rainwise IP-100,2013-09-15 18:08:00,
2013-09-15 14:13:00,67.6,50.0,30.21,WNW,292,6.8,11.0,55,0.00,,,0.01,Rainwise IP-100,2013-09-15 18:13:00,
2013-09-15 14:18:00,67.5,51.0,30.20,WNW,292,8.9,9.0,56,0.00,,,0.01,Rainwise IP-100,2013-09-15 18:18:00,
2013-09-15 14:23:00,67.5,51.0,30.20,NW,315,10.7,10.7,56,0.00,,,0.01,Rainwise IP-100,2013-09-15 18:23:00,
2013-09-15 14:28:00,67.5,51.0,30.20,WNW,292,8.2,12.0,56,0.00,,,0.01,Rainwise IP-100,2013-09-15 18:28:00,
2013-09-15 14:33:00,67.4,52.0,30.19,WNW,292,9.6,9.6,57,0.00,,,0.01,Rainwise IP-100,2013-09-15 18:33:00,
2013-09-15 14:38:00,67.5,52.0,30.19,WNW,292,5.6,10.0,58,0.00,,,0.01,Rainwise IP-100,2013-09-15 18:38:00,
2013-09-15 14:43:00,67.6,52.0,30.19,WNW,292,8.4,8.4,58,0.00,,,0.01,Rainwise IP-100,2013-09-15 18:43:00,
2013-09-15 14:48:00,68.0,53.0,30.19,West,270,8.4,11.0,59,0.00,,,0.01,Rainwise IP-100,2013-09-15 18:48:00,
2013-09-15 14:53:00,68.6,53.0,30.19,NW,315,7.9,9.0,59,0.00,,,0.01,Rainwise IP-100,2013-09-15 18:53:00,
2013-09-15 14:58:00,68.8,53.0,30.19,West,270,10.7,10.7,58,0.00,,,0.01,Rainwise IP-100,2013-09-15 18:58:00,
2013-09-15 15:03:00,69.1,54.0,30.19,West,270,8.9,11.0,59,0.00,,,0.01,Rainwise IP-100,2013-09-15 19:03:00,
2013-09-15 15:08:00,69.4,54.0,30.19,WNW,292,5.4,9.0,59,0.00,,,0.01,Rainwise IP-100,2013-09-15 19:08:00,
2013-09-15 15:13:00,69.3,54.0,30.19,WNW,292,8.2,10.0,59,0.00,,,0.01,Rainwise IP-100,2013-09-15 19:13:00,
2013-09-15 15:18:00,69.0,54.0,30.19,WNW,292,10.0,11.0,59,0.00,,,0.01,Rainwise IP-100,2013-09-15 19:18:00,
2013-09-15 15:23:00,68.7,53.0,30.19,WNW,292,4.2,10.0,59,0.00,,,0.01,Rainwise IP-100,2013-09-15 19:23:00,
2013-09-15 15:28:00,68.8,53.0,30.18,WNW,292,6.8,11.0,59,0.00,,,0.01,Rainwise IP-100,2013-09-15 19:28:00,
2013-09-15 15:33:00,68.9,53.0,30.18,WNW,292,6.8,11.0,58,0.00,,,0.01,Rainwise IP-100,2013-09-15 19:33:00,
2013-09-15 15:38:00,69.0,54.0,30.18,West,270,5.8,9.0,59,0.00,,,0.01,Rainwise IP-100,2013-09-15 19:38:00,
2013-09-15 15:43:00,69.0,54.0,30.18,WNW,292,9.6,11.0,60,0.00,,,0.01,Rainwise IP-100,2013-09-15 19:43:00,
2013-09-15 15:48:00,69.0,54.0,30.18,West,270,9.8,12.0,61,0.00,,,0.01,Rainwise IP-100,2013-09-15 19:48:00,
2013-09-15 15:53:00,68.7,54.0,30.18,West,270,7.5,11.0,62,0.00,,,0.01,Rainwise IP-100,2013-09-15 19:53:00,
2013-09-15 15:58:00,68.5,54.0,30.18,West,270,8.6,11.0,62,0.00,,,0.01,Rainwise IP-100,2013-09-15 19:58:00,
2013-09-15 16:03:00,68.4,55.0,30.18,West,270,8.9,12.0,63,0.00,,,0.01,Rainwise IP-100,2013-09-15 20:03:00,
2013-09-15 16:08:00,68.3,55.0,30.17,WSW,247,7.0,10.0,64,0.00,,,0.01,Rainwise IP-100,2013-09-15 20:08:00,
2013-09-15 16:13:00,67.9,55.0,30.18,WSW,247,8.6,11.0,64,0.00,,,0.01,Rainwise IP-100,2013-09-15 20:13:00,
2013-09-15 16:18:00,67.8,55.0,30.17,West,270,9.1,11.0,65,0.00,,,0.01,Rainwise IP-100,2013-09-15 20:18:00,
2013-09-15 16:23:00,67.9,56.0,30.17,WSW,247,8.2,10.0,66,0.00,,,0.01,Rainwise IP-100,2013-09-15 20:23:00,
2013-09-15 16:28:00,67.7,56.0,30.17,SW,225,6.3,11.0,66,0.00,,,0.01,Rainwise IP-100,2013-09-15 20:28:00,
2013-09-15 16:33:00,67.5,56.0,30.17,WSW,247,5.6,10.0,66,0.00,,,0.01,Rainwise IP-100,2013-09-15 20:33:00,
2013-09-15 16:38:00,67.3,55.0,30.17,SW,225,9.1,9.1,66,0.00,,,0.01,Rainwise IP-100,2013-09-15 20:38:00,
2013-09-15 16:43:00,67.2,56.0,30.17,WSW,247,7.2,10.0,67,0.00,,,0.01,Rainwise IP-100,2013-09-15 20:43:00,
2013-09-15 16:48:00,67.1,56.0,30.17,WSW,247,9.3,11.0,68,0.00,,,0.01,Rainwise IP-100,2013-09-15 20:48:00,
2013-09-15 16:53:00,66.8,56.0,30.17,WSW,247,9.3,11.0,69,0.00,,,0.01,Rainwise IP-100,2013-09-15 20:53:00,
2013-09-15 16:58:00,66.8,56.0,30.16,WSW,247,9.1,11.0,69,0.00,,,0.01,Rainwise IP-100,2013-09-15 20:58:00,
2013-09-15 17:03:00,67.1,56.0,30.16,WSW,247,8.4,11.0,68,0.00,,,0.01,Rainwise IP-100,2013-09-15 21:03:00,
2013-09-15 17:08:00,67.6,56.0,30.16,SW,225,11.9,11.9,67,0.00,,,0.01,Rainwise IP-100,2013-09-15 21:08:00,
2013-09-15 17:13:00,68.1,56.0,30.16,WSW,247,10.3,12.0,67,0.00,,,0.01,Rainwise IP-100,2013-09-15 21:13:00,
2013-09-15 17:18:00,68.3,56.0,30.16,SW,225,12.4,12.4,67,0.00,,,0.01,Rainwise IP-100,2013-09-15 21:18:00,
2013-09-15 17:23:00,68.4,57.0,30.16,SW,225,10.3,13.0,67,0.00,,,0.01,Rainwise IP-100,2013-09-15 21:23:00,
2013-09-15 17:28:00,68.0,56.0,30.16,SW,225,9.3,13.0,67,0.00,,,0.01,Rainwise IP-100,2013-09-15 21:28:00,
2013-09-15 17:33:00,67.3,56.0,30.16,WSW,247,8.6,11.0,67,0.00,,,0.01,Rainwise IP-100,2013-09-15 21:33:00,
2013-09-15 17:38:00,66.6,56.0,30.16,WSW,247,9.6,12.0,69,0.00,,,0.01,Rainwise IP-100,2013-09-15 21:38:00,
2013-09-15 17:43:00,66.0,56.0,30.16,WSW,247,8.9,12.0,70,0.00,,,0.01,Rainwise IP-100,2013-09-15 21:43:00,
2013-09-15 17:48:00,66.0,56.0,30.16,WSW,247,8.9,11.0,71,0.00,,,0.01,Rainwise IP-100,2013-09-15 21:48:00,
2013-09-15 17:53:00,66.1,56.0,30.16,WSW,247,8.4,11.0,71,0.00,,,0.01,Rainwise IP-100,2013-09-15 21:53:00,
2013-09-15 17:58:00,66.0,56.0,30.16,WSW,247,8.9,11.0,71,0.00,,,0.01,Rainwise IP-100,2013-09-15 21:58:00,
2013-09-15 18:03:00,65.8,56.0,30.16,SW,225,9.8,12.0,71,0.00,,,0.01,Rainwise IP-100,2013-09-15 22:03:00,
2013-09-15 18:08:00,65.7,56.0,30.16,SW,225,9.8,11.0,71,0.00,,,0.01,Rainwise IP-100,2013-09-15 22:08:00,
2013-09-15 18:13:00,65.7,56.0,30.16,SW,225,10.3,11.0,71,0.00,,,0.01,Rainwise IP-100,2013-09-15 22:13:00,
2013-09-15 18:18:00,65.5,56.0,30.16,WSW,247,9.6,11.0,71,0.00,,,0.01,Rainwise IP-100,2013-09-15 22:18:00,
2013-09-15 18:23:00,65.3,55.0,30.16,SW,225,11.0,11.0,71,0.00,,,0.01,Rainwise IP-100,2013-09-15 22:23:00,
2013-09-15 18:28:00,65.1,55.0,30.16,SW,225,8.9,12.0,71,0.00,,,0.01,Rainwise IP-100,2013-09-15 22:28:00,
2013-09-15 18:33:00,64.9,56.0,30.16,SW,225,10.7,11.0,72,0.00,,,0.01,Rainwise IP-100,2013-09-15 22:33:00,
2013-09-15 18:38:00,64.6,55.0,30.16,WSW,247,9.3,11.0,72,0.00,,,0.01,Rainwise IP-100,2013-09-15 22:38:00,
2013-09-15 18:43:00,64.4,56.0,30.16,SW,225,7.7,10.0,73,0.00,,,0.01,Rainwise IP-100,2013-09-15 22:43:00,
2013-09-15 18:48:00,64.1,55.0,30.16,WSW,247,7.9,10.0,73,0.00,,,0.01,Rainwise IP-100,2013-09-15 22:48:00,
2013-09-15 18:53:00,63.8,55.0,30.16,WSW,247,10.0,11.0,74,0.00,,,0.01,Rainwise IP-100,2013-09-15 22:53:00,
2013-09-15 18:58:00,63.6,55.0,30.15,WSW,247,8.2,11.0,74,0.00,,,0.01,Rainwise IP-100,2013-09-15 22:58:00,
2013-09-15 19:03:00,63.4,55.0,30.16,WSW,247,9.1,11.0,75,0.00,,,0.01,Rainwise IP-100,2013-09-15 23:03:00,
2013-09-15 19:08:00,63.3,55.0,30.16,WSW,247,10.3,11.0,75,0.00,,,0.01,Rainwise IP-100,2013-09-15 23:08:00,
2013-09-15 19:13:00,63.3,55.0,30.16,WSW,247,8.6,11.0,75,0.00,,,0.01,Rainwise IP-100,2013-09-15 23:13:00,
2013-09-15 19:18:00,63.3,55.0,30.16,WSW,247,8.6,11.0,75,0.00,,,0.01,Rainwise IP-100,2013-09-15 23:18:00,
2013-09-15 19:23:00,63.1,55.0,30.16,WSW,247,8.6,11.0,76,0.00,,,0.01,Rainwise IP-100,2013-09-15 23:23:00,
2013-09-15 19:28:00,63.1,55.0,30.16,WSW,247,9.3,11.0,76,0.00,,,0.01,Rainwise IP-100,2013-09-15 23:28:00,
2013-09-15 19:33:00,63.1,55.0,30.16,WSW,247,9.6,11.0,76,0.00,,,0.01,Rainwise IP-100,2013-09-15 23:33:00,
2013-09-15 19:38:00,63.0,55.0,30.16,WSW,247,10.5,11.0,76,0.00,,,0.01,Rainwise IP-100,2013-09-15 23:38:00,
2013-09-15 19:43:00,62.9,55.0,30.16,WSW,247,8.4,11.0,76,0.00,,,0.01,Rainwise IP-100,2013-09-15 23:43:00,
2013-09-15 19:48:00,62.7,54.0,30.15,WSW,247,7.9,9.0,76,0.00,,,0.01,Rainwise IP-100,2013-09-15 23:48:00,
2013-09-15 19:53:00,62.6,54.0,30.16,WSW,247,8.4,10.0,76,0.00,,,0.01,Rainwise IP-100,2013-09-15 23:53:00,
2013-09-15 19:58:00,62.4,55.0,30.16,WSW,247,7.7,10.0,77,0.00,,,0.01,Rainwise IP-100,2013-09-15 23:58:00,
2013-09-15 20:03:00,62.3,54.0,30.16,WSW,247,6.5,9.0,77,0.00,,,0.01,Rainwise IP-100,2013-09-16 00:03:00,
2013-09-15 20:08:00,62.3,54.0,30.16,WSW,247,8.2,10.0,77,0.00,,,0.01,Rainwise IP-100,2013-09-16 00:08:00,
2013-09-15 20:13:00,62.5,55.0,30.15,WSW,247,9.3,10.0,77,0.00,,,0.01,Rainwise IP-100,2013-09-16 00:13:00,
2013-09-15 20:18:00,62.6,55.0,30.16,WSW,247,9.8,11.0,78,0.00,,,0.01,Rainwise IP-100,2013-09-16 00:18:00,
2013-09-15 20:23:00,62.7,55.0,30.16,WSW,247,11.0,11.0,78,0.00,,,0.01,Rainwise IP-100,2013-09-16 00:23:00,
2013-09-15 20:28:00,62.8,56.0,30.16,WSW,247,8.4,11.0,80,0.00,,,0.01,Rainwise IP-100,2013-09-16 00:28:00,
2013-09-15 20:33:00,62.7,56.0,30.16,WSW,247,10.5,12.0,80,0.00,,,0.01,Rainwise IP-100,2013-09-16 00:33:00,
2013-09-15 20:38:00,62.7,56.0,30.16,WSW,247,9.3,12.0,81,0.00,,,0.01,Rainwise IP-100,2013-09-16 00:38:00,
2013-09-15 20:43:00,62.6,56.0,30.16,WSW,247,9.3,11.0,81,0.00,,,0.01,Rainwise IP-100,2013-09-16 00:43:00,
2013-09-15 20:48:00,62.6,56.0,30.16,WSW,247,9.8,12.0,81,0.00,,,0.01,Rainwise IP-100,2013-09-16 00:48:00,
2013-09-15 20:53:00,62.6,57.0,30.16,WSW,247,8.2,11.0,82,0.00,,,0.01,Rainwise IP-100,2013-09-16 00:53:00,
2013-09-15 20:58:00,62.6,57.0,30.16,WSW,247,7.9,11.0,82,0.00,,,0.01,Rainwise IP-100,2013-09-16 00:58:00,
2013-09-15 21:03:00,62.6,57.0,30.17,WSW,247,11.0,11.0,83,0.00,,,0.01,Rainwise IP-100,2013-09-16 01:03:00,
2013-09-15 21:08:00,62.6,57.0,30.16,WSW,247,11.2,12.0,83,0.00,,,0.01,Rainwise IP-100,2013-09-16 01:08:00,
2013-09-15 21:13:00,62.6,57.0,30.17,WSW,247,9.3,12.0,84,0.00,,,0.01,Rainwise IP-100,2013-09-16 01:13:00,
2013-09-15 21:18:00,62.7,57.0,30.16,WSW,247,10.0,12.0,84,0.00,,,0.01,Rainwise IP-100,2013-09-16 01:18:00,
2013-09-15 21:23:00,62.7,57.0,30.16,WSW,247,8.2,11.0,85,0.00,,,0.01,Rainwise IP-100,2013-09-16 01:23:00,
2013-09-15 21:28:00,62.8,57.0,30.16,WSW,247,11.2,11.2,85,0.00,,,0.01,Rainwise IP-100,2013-09-16 01:28:00,
2013-09-15 21:33:00,62.7,57.0,30.16,WSW,247,8.6,11.0,85,0.00,,,0.01,Rainwise IP-100,2013-09-16 01:33:00,
2013-09-15 21:38:00,62.6,57.0,30.16,WSW,247,9.1,10.0,85,0.00,,,0.01,Rainwise IP-100,2013-09-16 01:38:00,
2013-09-15 21:43:00,62.5,57.0,30.16,WSW,247,7.0,10.0,85,0.00,,,0.01,Rainwise IP-100,2013-09-16 01:43:00,
2013-09-15 21:48:00,62.5,58.0,30.16,WSW,247,8.6,9.0,86,0.00,,,0.01,Rainwise IP-100,2013-09-16 01:48:00,
2013-09-15 21:53:00,62.5,58.0,30.16,WSW,247,8.9,9.0,86,0.00,,,0.01,Rainwise IP-100,2013-09-16 01:53:00,
2013-09-15 21:58:00,62.5,58.0,30.16,WSW,247,7.9,11.0,86,0.00,,,0.01,Rainwise IP-100,2013-09-16 01:58:00,
2013-09-15 22:03:00,62.6,59.0,30.16,WSW,247,10.7,11.0,87,0.00,,,0.01,Rainwise IP-100,2013-09-16 02:03:00,
2013-09-15 22:08:00,62.6,59.0,30.16,WSW,247,8.9,11.0,87,0.00,,,0.01,Rainwise IP-100,2013-09-16 02:08:00,
2013-09-15 22:13:00,62.8,59.0,30.16,WSW,247,8.9,10.0,87,0.00,,,0.01,Rainwise IP-100,2013-09-16 02:13:00,
2013-09-15 22:18:00,62.9,59.0,30.16,WSW,247,10.5,12.0,87,0.00,,,0.01,Rainwise IP-100,2013-09-16 02:18:00,
2013-09-15 22:23:00,63.0,59.0,30.15,WSW,247,11.0,13.0,87,0.00,,,0.01,Rainwise IP-100,2013-09-16 02:23:00,
2013-09-15 22:28:00,63.1,59.0,30.16,WSW,247,9.6,12.0,87,0.00,,,0.01,Rainwise IP-100,2013-09-16 02:28:00,
2013-09-15 22:33:00,63.2,59.0,30.16,WSW,247,8.2,11.0,87,0.00,,,0.01,Rainwise IP-100,2013-09-16 02:33:00,
2013-09-15 22:38:00,63.1,59.0,30.16,WSW,247,10.3,11.0,87,0.00,,,0.01,Rainwise IP-100,2013-09-16 02:38:00,
2013-09-15 22:43:00,63.0,59.0,30.16,WSW,247,8.9,11.0,87,0.00,,,0.01,Rainwise IP-100,2013-09-16 02:43:00,
2013-09-15 22:48:00,62.9,59.0,30.16,WSW,247,10.0,11.0,88,0.00,,,0.01,Rainwise IP-100,2013-09-16 02:48:00,
2013-09-15 22:53:00,62.9,59.0,30.16,WSW,247,9.1,11.0,88,0.00,,,0.01,Rainwise IP-100,2013-09-16 02:53:00,
2013-09-15 22:58:00,62.8,59.0,30.16,WSW,247,9.1,11.0,88,0.00,,,0.01,Rainwise IP-100,2013-09-16 02:58:00,
2013-09-15 23:03:00,62.9,59.0,30.16,WSW,247,11.0,11.0,88,0.00,,,0.01,Rainwise IP-100,2013-09-16 03:03:00,
2013-09-15 23:08:00,62.9,59.0,30.16,WSW,247,8.9,14.0,88,0.00,,,0.01,Rainwise IP-100,2013-09-16 03:08:00,
2013-09-15 23:13:00,63.1,60.0,30.15,WSW,247,10.5,13.0,89,0.00,,,0.01,Rainwise IP-100,2013-09-16 03:13:00,
2013-09-15 23:18:00,63.3,60.0,30.16,West,270,10.7,13.0,89,0.00,,,0.01,Rainwise IP-100,2013-09-16 03:18:00,
2013-09-15 23:23:00,63.4,60.0,30.15,WSW,247,10.7,13.0,88,0.00,,,0.01,Rainwise IP-100,2013-09-16 03:23:00,
2013-09-15 23:28:00,63.4,60.0,30.15,WSW,247,8.6,12.0,88,0.00,,,0.01,Rainwise IP-100,2013-09-16 03:28:00,
2013-09-15 23:33:00,63.2,59.0,30.15,West,270,9.3,12.0,88,0.00,,,0.01,Rainwise IP-100,2013-09-16 03:33:00,
2013-09-15 23:38:00,63.2,59.0,30.15,WSW,247,7.2,10.0,88,0.00,,,0.01,Rainwise IP-100,2013-09-16 03:38:00,
2013-09-15 23:43:00,63.2,60.0,30.14,WSW,247,10.5,11.0,89,0.00,,,0.01,Rainwise IP-100,2013-09-16 03:43:00,
2013-09-15 23:48:00,63.2,60.0,30.14,WSW,247,11.7,11.7,89,0.00,,,0.01,Rainwise IP-100,2013-09-16 03:48:00,
2013-09-15 23:53:00,63.4,60.0,30.14,WSW,247,10.0,11.0,89,0.00,,,0.01,Rainwise IP-100,2013-09-16 03:53:00,
2013-09-15 23:58:00,63.4,60.0,30.14,WSW,247,9.8,11.0,89,0.00,,,0.01,Rainwise IP-100,2013-09-16 03:58:00,